{"data":{"norad_id":60908,"epoch":"2026-05-25T02:24:16.999200Z","epoch_age_seconds":76553,"freshness":"FRESH","line1":"1 60908U 24154F   26145.10019675  .00002125  00000+0  22387-4 0  9991","line2":"2 60908  53.1571 114.7247 0000737  82.6904 277.4198 15.69710149100517","mean_motion":15.69710149,"eccentricity":7.37e-5,"inclination_deg":53.1571,"raan_deg":114.7247,"arg_perigee_deg":82.6904,"mean_anomaly_deg":277.4198,"bstar":2.2387e-5,"rev_number":10051,"period_min":91.736681508836,"perigee_km":359.22974351187,"apogee_km":360.22290456583,"semimajor_km":6737.8633240388,"source":"CELESTRAK","updated_at":"2026-05-25T13:38:19.313033Z"}}